Regional Weather Roundup
Issued by NWS

Home | Current Version | Previous Version | Text Only | Print | Product List | Glossary Off
Versions: 1 2 3 4 5 6 7 8 9 10 11 12 13 14 15 16 17 18 19 20 21 22 23 24 25 26 27 28 29 30 31 32 33 34 35 36 37 38 39 40 41 42 43 44 45 46 47 48 49 50

000
ASUS43 KMKX 060610
RWRWI

WISCONSIN REGIONAL WEATHER ROUNDUP
NATIONAL WEATHER SERVICE MILWAUKEE/SULLIVAN WI
1200 AM CST FRI MAR 06 2015

NOTE: "FAIR" INDICATES FEW OR NO CLOUDS BELOW 12,000 FEET WITH NO
SIGNIFICANT WEATHER AND/OR OBSTRUCTIONS TO VISIBILITY.

WIZ001-002-006>008-014>016-023>028-060700-
NORTHWEST WISCONSIN

CITY           SKY/WX    TMP DP  RH WIND       PRES   REMARKS
SUPERIOR ARPT  CLEAR      7  -3  65 SW8       30.21F WCI  -6
6HR MIN TEMP:   5; 6HR MAX TEMP:  12;

ASHLAND        PTCLDY     5  -5  63 S10       30.23F WCI -10
6HR MIN TEMP:   4; 6HR MAX TEMP:  11;

HAYWARD        CLEAR      2  -6  69 S7        30.23F WCI -11
6HR MIN TEMP:   1; 6HR MAX TEMP:  10;

SIREN          PTCLDY     4  -2  75 S6        30.24F WCI  -7
6HR MIN TEMP:   3; 6HR MAX TEMP:  10;

CUMBERLAND     PTCLDY    -2  -6  84 S8        30.25F WCI -17
RICE LAKE      PTCLDY     1  -5  76 SE5       30.29F WCI  -9
6HR MIN TEMP:   0; 6HR MAX TEMP:   9;

CHETEK         PTCLDY     4  -3  74 S6        30.29F WCI  -7
6HR MIN TEMP:   0; 6HR MAX TEMP:   9;

LADYSMITH      PTCLDY     2  -6  71 S5        30.30F WCI  -8
6HR MIN TEMP:   0; 6HR MAX TEMP:   9;

EAU CLAIRE     PTCLDY     3  -5  69 S8        30.32F WCI -10
6HR MIN TEMP:   1; 6HR MAX TEMP:   9;

MENOMONIE      PTCLDY     2  -4  73 E3        30.33F
6HR MIN TEMP:   2; 6HR MAX TEMP:  10;

NEW RICHMOND   PTCLDY     5  -1  75 S8        30.28F WCI  -8
6HR MIN TEMP:   5; 6HR MAX TEMP:  10;

OSCEOLA        CLEAR      5  -1  76 S6        30.30F WCI  -5
6HR MIN TEMP:   4; 6HR MAX TEMP:  12;

$$

WIZ003>005-009-010-017-018-060700-
NORTH CENTRAL WISCONSIN

CITY           SKY/WX    TMP DP  RH WIND       PRES   REMARKS
MANITOWISH WTR PTCLDY    -1 -10  66 SW8       30.21F WCI -16
6HR MIN TEMP:  -1; 6HR MAX TEMP:   9;

ARBOR VITAE    PTCLDY    -1 -10  66 S6        30.23F WCI -13
6HR MIN TEMP:  -1; 6HR MAX TEMP:  11;

WOODRUFF       PTCLDY    -1 -10  66 S6        30.23F WCI -13
6HR MIN TEMP:  -1; 6HR MAX TEMP:  11;

RHINELANDER    MOCLDY    -1 -11  62 SW9       30.25F WCI -16
6HR MIN TEMP:  -1; 6HR MAX TEMP:   8;

EAGLE RIVER    PTCLDY     0 -12  57 CALM      30.22F
6HR MIN TEMP:  -1; 6HR MAX TEMP:   8;

LAND O LAKES   PTCLDY     0 -10  61 SW5       30.22F WCI -10
6HR MIN TEMP:   0; 6HR MAX TEMP:  10;

PHILLIPS       PTCLDY     0  -8  70 S7        30.25F WCI -13
6HR MIN TEMP:   0; 6HR MAX TEMP:   7;

TOMAHAWK       MOCLDY    -7 -14  72 CALM      30.28F
6HR MIN TEMP:  -7; 6HR MAX TEMP:   9;

MEDFORD        PTCLDY     0  -8  68 SW7       30.28F WCI -13
6HR MIN TEMP:  -1; 6HR MAX TEMP:   5;

MERRILL        CLOUDY    -3 -11  69 CALM      30.31F
6HR MIN TEMP:  -4; 6HR MAX TEMP:   6;

$$

WIZ029-030-035-036-043>047-060700-
CENTRAL WISCONSIN

CITY           SKY/WX    TMP DP  RH WIND       PRES   REMARKS
WAUSAU         MOCLDY     2  -9  60 SW3       30.32F
6HR MIN TEMP:   1; 6HR MAX TEMP:   8;

MOSINEE        PTCLDY     0  -9  65 SW6       30.34F WCI -12
MARSHFIELD     PTCLDY     0  -9  65 SW7       30.33F WCI -13
6HR MIN TEMP:   0; 6HR MAX TEMP:   9;

STEVENS POINT  CLEAR     -1  -9  67 SW3       30.37F
6HR MIN TEMP:  -3; 6HR MAX TEMP:   8;

WAUPACA        PTCLDY     5  -6  59 SW3       30.40F
6HR MIN TEMP:   5; 6HR MAX TEMP:  14;

WAUTOMA        CLEAR     -2  -9  72 CALM      30.41F
6HR MIN TEMP:  -3; 6HR MAX TEMP:  12;

WISC RAPIDS    PTCLDY     3  -8  60 SW7       30.39F WCI  -9
6HR MIN TEMP:   2; 6HR MAX TEMP:  12;

CAMP DOUGLAS   PTCLDY    -1  -7  77 S3        30.39F
6HR MIN TEMP:  -1; 6HR MAX TEMP:  10;

$$

WIZ011>013-019>022-031-037>040-048>050-060700-
NORTHEAST WISCONSIN

CITY           SKY/WX    TMP DP  RH WIND       PRES   REMARKS
ANTIGO         MOCLDY    -4 -12  67 SW6       30.29F WCI -17
6HR MIN TEMP:  -5; 6HR MAX TEMP:   4;

SHAWANO        PTCLDY     5  -7  57 CALM      30.38F
6HR MIN TEMP:   5; 6HR MAX TEMP:  13;

OCONTO         MOCLDY    -5 -12  71 SW3       30.39F
6HR MIN TEMP:  -5; 6HR MAX TEMP:  12;

STURGEON BAY   PTCLDY     7  -9  47 SW6       30.39F WCI  -3
6HR MIN TEMP:   7; 6HR MAX TEMP:  10;

GREEN BAY      PTCLDY     5  -7  57 SW6       30.41F WCI  -6
6HR MIN TEMP:   3; 6HR MAX TEMP:  11;

MANITOWOC      PTCLDY     4  -4  69 SW6       30.43F WCI  -7
6HR MIN TEMP:   3; 6HR MAX TEMP:  11;

APPLETON       PTCLDY     7  -8  51 SW9       30.39F WCI  -7
CLINTONVILLE   PTCLDY     5  -6  61 SW7       30.38F WCI  -7
OSHKOSH        PTCLDY     6  -6  57 SW6       30.42F WCI  -4
6HR MIN TEMP:   3; 6HR MAX TEMP:  13;

$$

WIZ032>034-041-042-053>061-060700-
SOUTHWEST WISCONSIN

CITY           SKY/WX    TMP DP  RH WIND       PRES   REMARKS
LA CROSSE      PTCLDY     5  -4  66 S10       30.42F WCI -10
6HR MIN TEMP:   5; 6HR MAX TEMP:  10;

SPARTA         PTCLDY     3  -5  70 S5        30.41F WCI  -7
6HR MIN TEMP:   3; 6HR MAX TEMP:  11;

VIROQUA        PTCLDY     1  -5  75 S8        30.37F WCI -13
6HR MIN TEMP:  -1; 6HR MAX TEMP:   8;

BOSCOBEL       MOCLDY    -3  -9  75 CALM      30.47F
6HR MIN TEMP:  -4; 6HR MAX TEMP:  11;

PRAIRIE DU CHI MOCLDY    -1  -8  74 CALM      30.46F
6HR MIN TEMP:  -2; 6HR MAX TEMP:  10;

PLATTEVILLE    MOCLDY    -1  -8  74 S6        30.44F WCI -13
6HR MIN TEMP:  -1; 6HR MAX TEMP:   8;

$$

WIZ056-057-062-063-064-067-068-060700-
SOUTH CENTRAL WISCONSIN

CITY           SKY/WX    TMP DP  RH WIND       PRES   REMARKS
REEDSBURG      PTCLDY     3  -5  68 CALM      30.42F
6HR MIN TEMP:   3; 6HR MAX TEMP:  12;

BARABOO/DELLS  PTCLDY     3  -6  66 CALM      30.41F
6HR MIN TEMP:   2; 6HR MAX TEMP:  11;

LONE ROCK      FAIR      -4 -11  72 CALM      30.47F
6HR MIN TEMP:  -6; 6HR MAX TEMP:  12;

MINERAL POINT  PTCLDY     3  -4  72 S3        30.42F
MADISON        PTCLDY     5  -6  60 SW5       30.45F WCI  -4
6HR MIN TEMP:   5; 6HR MAX TEMP:  13;

MIDDLETON      PTCLDY     5  -6  60 W3        30.45S
6HR MIN TEMP:   5; 6HR MAX TEMP:  13;

WATERTOWN      MOCLDY     2  -6  69 CALM      30.44F
6HR MIN TEMP:   2; 6HR MAX TEMP:  11;

MONROE         PTCLDY     3  -4  72 SW8       30.44F WCI -10
JANESVILLE     PTCLDY     1  -8  66 SW3       30.48F
$$

WIZ051-052-058>065-066-070>072-060700-
SOUTHEAST WISCONSIN

CITY           SKY/WX    TMP DP  RH WIND       PRES   REMARKS
MILWAUKEE      PTCLDY     5  -7  57 SW8       30.48S WCI  -8
6HR MIN TEMP:   5; 6HR MAX TEMP:  14;

WAUKESHA       PTCLDY     3  -6  66 SW8       30.46F WCI -10
MILWAUKEE/TIMM PTCLDY     5  -6  61 SW8       30.47F WCI  -8
RACINE         PTCLDY     3  -8  60 SW6       30.50F WCI  -8
6HR MIN TEMP:   3; 6HR MAX TEMP:  12;

BURLINGTON     MOCLDY   -10 -15  80 CALM      30.48F
6HR MIN TEMP: -10; 6HR MAX TEMP:   6;

KENOSHA        MOCLDY     3  -7  63 SW6       30.48F WCI  -8
6HR MIN TEMP:  -3; 6HR MAX TEMP:   8;

FOND DU LAC    PTCLDY     5  -5  63 SW8       30.43F WCI  -8
6HR MIN TEMP:   5; 6HR MAX TEMP:  13;

SHEBOYGAN      MOCLDY     2  -7  66 SW8       30.43F WCI -12
6HR MIN TEMP:   1; 6HR MAX TEMP:   9;

WEST BEND      MOCLDY     5  -6  61 SW5       30.43F WCI  -4
JUNEAU         PTCLDY     1  -7  71 SW7       30.44F WCI -12
6HR MIN TEMP:   1; 6HR MAX TEMP:  10;

$$

LSZ147-162-060700-
LAKE SUPERIOR

STATION/POSITION TIME  TEMP    WIND        PRES    WAVE
                       AIR SEA DIR/SP/G            HT/PER
                 (UTC) (F)     (DEG/KT/KT) (MB)    (FT/S)
DEVILS ISLAND    0600    9     220/  9/ 10 1024.4F
PORT WING        0500    9     190/ 10/ 24 1024.0
SAXON HARBOR     0540    9     200/ 12/ 17 1024.0F
$$

LMZ867-665-643>646-060700-
LAKE MICHIGAN

STATION/POSITION TIME  TEMP    WIND        PRES    WAVE


USA.gov is the U.S. government's official web portal to all federal, state and local government web resources and services.